Tracking 29892 objects as of 21-Nov-2024
HD Live streaming from Space Station
objects crossing your sky now

FENGYUN 1C DEB

Track FENGYUN 1C DEB now!
10-day predictions


NORAD ID: 30284
Int'l Code: 1999-025YV
Perigee: 787.6 km
Apogee: 846.7 km
Inclination: 98.7 °
Period: 101.1 minutes
Semi major axis: 7188 km
RCS: 0.0159 m2 (small)
Launch date: May 10, 1999
Source: People's Republic of China (PRC)
Launch site: Taiyaun Space Center, China (TSC)

Note: This is SATELLITE DEBRIS
Your satellite tracking list
Your tracking list is empty




NASA's NSSDC Master Catalog

Two Line Element Set (TLE):
1 30284U 99025YV  24325.13084905  .00007462  00000-0  32037-2 0  9994
2 30284  98.7478  28.3212 0041069 154.9878 235.4691 14.24552611919888
Source of the keplerian elements: AFSPC